Hourly Data Report for June 07, 2012

HALIFAX STANFIELD INT'L A
NOVA SCOTIA

44°52'48.060" N
63°30'00.050" W
145.40 m
8202250
71395
YHZ

Download Data

Hourly Data (June 2012)
Hourly Data Report for June 7, 2012
TIME
LST
Temp Definition
°C
Dew Point Definition
°C
Rel Hum Definition
%
Precip. Amount Definition
mm

Wind Dir Definition
10's deg

Wind Spd Definition
km/h
Visibility Definition
km
Stn Press Definition
kPa
Hmdx Definition


Wind Chill Definition


Weather Definition


00:00 7.1 6.5 96   34 15 16.1 99.47     Drizzle
01:00 7.0 6.6 97   34 15 12.9 99.44     Drizzle
02:00 7.1 6.6 97   33 13 12.9 99.45     Cloudy
03:00 7.2 6.7 97   33 17 12.9 99.41     Cloudy
04:00 7.1 6.6 97   34 20 12.9 99.41     Cloudy
05:00 6.9 6.1 95   34 19 19.3 99.43     Mostly Cloudy
06:00 7.2 6.2 93   23 19 19.3 99.47     Cloudy
07:00 8.3 6.7 90   35 24 24.1 99.48     Mostly Cloudy
08:00 10.5 7.2 80   33 22 24.1 99.48     Mostly Cloudy
09:00 10.9 6.7 75   35 26 24.1 99.44     Mostly Cloudy
10:00 11.4 6.1 70   34 20 24.1 99.44     Mostly Cloudy
11:00 11.8 6.5 70   32 22 24.1 99.44     Mostly Cloudy
12:00 12.4 6.1 65   31 22 24.1 99.39     Mostly Cloudy
13:00 13.8 7.3 65   29 24 24.1 99.35     Cloudy
14:00 14.1 7.0 62   30 24 24.1 99.30     Cloudy
15:00 14.7 7.2 61   31 28 24.1 99.26     Mostly Cloudy
16:00 15.3 7.4 59   32 32 24.1 99.24     Mostly Cloudy
17:00 14.9 6.5 57   33 26 24.1 99.25     Mostly Cloudy
18:00 14.5 7.0 61   32 24 24.1 99.28     Mostly Cloudy
19:00 13.7 6.2 60   33 19 24.1 99.34     Mostly Cloudy
20:00 10.8 6.8 76   30 11 24.1 99.37     Mostly Cloudy
21:00 10.0 6.5 79   32 13 24.1 99.41     Mainly Clear
22:00 9.3 6.6 83   32 9 24.1 99.42     Mainly Clear
23:00 9.3 6.9 85   31 11 24.1 99.40     Mainly Clear

Notes on Data Quality.

Legend

  • E = Estimated
  • M = Missing
  • NA = Not Available*
  • [empty] = Indicates an unobserved value
Date modified: